Preview of NWS' New Version of Forecast
This preview is not operational and should not be used for support decisions.

Regional Weather Roundup (RWR)

Issued by National Weather Service (NWS)

                            
000
ASUS43 KLSX 182157
RWRMO 

WEATHER SUMMARY FOR MISSOURI
NATIONAL WEATHER SERVICE SPRINGFIELD MO
500 PM CDT MON MAR 18 2019

NOTE: "FAIR" INDICATES FEW OR NO CLOUDS BELOW 12,000 FEET WITH NO
       SIGNIFICANT WEATHER AND/OR OBSTRUCTIONS TO VISIBILITY.
       CURRENT SKY AND/OR WEATHER CONDITIONS ARE NOT AVAILABLE FOR
       CHILLICOTHE AND FARMINGTON.

MOZ001>031-035>038-043-044-053-054-182300-
...NORTHERN AND WESTERN MISSOURI...
  
CITY           SKY/WX    TMP DP  RH WIND       PRES   REMARKS
KANSAS CTY INT PTSUNNY   52  20  28 MISG      30.34F                  
LEE'S SUMMIT   SUNNY     53  23  31 N7        30.34F                  
ST JOSEPH      SUNNY     50  17  27 VRB3      30.35F                  
CHILLICOTHE      N/A     51  24  34 VRB5      30.37F                  
     
$$
MOZ066>068-077>081-088>096-101>105-182300-
...SOUTHWEST MISSOURI...
  
CITY           SKY/WX    TMP DP  RH WIND       PRES   REMARKS
SPRINGFIELD    SUNNY     58  28  32 VRB3      30.30F                  
JOPLIN         SUNNY     59  31  34 NE10      30.31F                  
BRANSON        MOSUNNY   57  25  28 CALM      30.30F                  
               
$$
MOZ032>034-039>042-045>050-055>058-069>072-182300-
...CENTRAL MISSOURI...  
  
CITY           SKY/WX    TMP DP  RH WIND       PRES   REMARKS
COLUMBIA       NOT AVBL                                               
JEFFERSON CITY SUNNY     53  18  25 W6        30.35F                  
ROLLA          SUNNY     52  21  29 N8        30.34F                  
SEDALIA        SUNNY     51  20  29 VRB3      30.36S                  
WARRENSBURG    SUNNY     52  23  32 N3        30.36F                  
               
$$
MOZ051-052-059>065-182300-
...EAST CENTRAL MISSOURI...
  
CITY           SKY/WX    TMP DP  RH WIND       PRES   REMARKS
ST LOUIS INTL  MOSUNNY   52  20  28 W3        30.37F                  
                   
$$
MOZ072>076-082>087-097>100-106>115-182300-
...SOUTH CENTRAL AND SOUTHEAST MISSOURI...
  
CITY           SKY/WX    TMP DP  RH WIND       PRES   REMARKS
CAPE GIRARDEAU FAIR      54  24  31 E10       30.35S                  
POPLAR BLUFF   FAIR      54  33  45 SE9       30.34F                  
WEST PLAINS    SUNNY     59  26  28 N7        30.31F                  
                                       
$$